EW1145 Weather Reports


time (UTC)temp
C
wind
direction
speed
KPH
gust
KPH
rain 1hr
cm
rain 24hr
cm
rain mn
cm
humidity
%
barometer
mb
20260505121547 10 277 0.0 0.0 0.00 0.00 0.00 92 1014.5
20260505120049 10 277 0.0 0.0 0.00 0.00 0.00 92 1014.5
20260505114549 11 277 0.0 0.0 0.00 0.00 0.00 92 1014.4
20260505113044 11 277 0.0 0.0 0.00 0.00 0.00 92 1014.4
20260505111543 10 277 0.0 0.0 0.00 0.00 0.00 93 1014.3
20260505101544 10 277 0.0 0.0 0.00 0.00 0.00 94 1013.9
20260505100037 10 277 0.0 0.0 0.00 0.00 0.00 95 1014.0
20260505094536 10 277 0.0 0.0 0.00 0.00 0.00 95 1013.9
20260505093036 9 277 0.0 0.0 0.00 0.00 0.00 95 1013.7
20260505091535 9 277 0.0 0.0 0.00 0.00 0.00 93 1013.6
20260505090041 10 277 0.0 0.0 0.00 0.00 0.00 92 1013.5
20260505084527 10 277 0.0 0.0 0.00 0.00 0.00 92 1013.4
20260505083026 10 277 0.0 0.0 0.00 0.00 0.00 92 1013.3
20260505081523 10 277 0.0 0.0 0.00 0.00 0.00 92 1013.3
20260505080037 10 277 0.0 0.0 0.00 0.00 0.00 91 1013.2
20260505074525 10 277 0.0 0.0 0.00 0.00 0.00 91 1013.0
20260505073028 11 277 0.0 0.0 0.00 0.00 0.00 90 1012.8
20260505071513 11 277 0.0 0.0 0.00 0.00 0.00 88 1012.6
20260505070011 11 277 0.0 0.0 0.00 0.00 0.00 88 1012.4
20260505064511 11 277 0.0 0.0 0.00 0.00 0.00 87 1012.3
20260505063010 12 277 0.0 0.0 0.00 0.00 0.00 86 1012.2
20260505061509 12 277 0.0 0.0 0.00 0.00 0.00 85 1011.8
20260505060009 12 277 0.0 0.0 0.00 0.00 0.00 84 1011.8
20260505054509 13 277 0.0 0.0 0.00 0.00 0.00 83 1011.8
20260505053009 13 277 0.0 0.0 0.00 0.00 0.00 81 1011.7
20260505051510 14 277 0.0 0.0 0.00 0.00 0.00 79 1011.6
20260505041506 17 277 0.0 0.0 0.00 0.00 0.00 67 1010.8
20260505040006 17 277 0.0 8.0 0.00 0.00 0.00 66 1010.6
20260505034505 18 304 1.6 11.3 0.00 0.00 0.00 64 1010.4
20260505033005 18 277 0.0 9.7 0.00 0.00 0.00 63 1010.1
20260505031505 20 282 0.0 12.9 0.00 0.00 0.00 61 1009.8
20260505030004 20 268 3.2 8.0 0.00 0.00 0.00 60 1009.7
20260505024505 21 304 1.6 9.7 0.00 0.00 0.00 57 1009.6
20260505023002 22 295 0.0 0.0 0.00 0.00 0.00 61 1009.4
20260505021502 22 296 0.0 0.0 0.00 0.00 0.00 61 1009.4
20260505020001 22 279 0.0 0.0 0.00 0.00 0.00 61 1009.3
20260505014501 23 244 0.0 6.4 0.00 0.00 0.00 59 1009.2
20260505013100 23 207 0.0 1.6 0.00 0.00 0.00 60 1009.2
20260505011601 23 207 0.0 6.4 0.00 0.00 0.00 61 1009.3
20260505010059 23 213 0.0 11.3 0.00 0.00 0.00 60 1009.4
20260505004600 24 216 0.0 12.9 0.00 0.00 0.00 59 1009.5
20260505003058 24 220 0.0 12.9 0.00 0.00 0.00 59 1009.5
20260505001558 24 232 0.0 9.7 0.00 0.00 0.00 59 1009.5
20260505000059 25 198 0.0 6.4 0.00 0.00 0.00 59 1009.6
20260504234557 24 196 0.0 9.7 0.00 0.00 0.00 59 1009.7
20260504233055 24 211 0.0 9.7 0.00 0.00 0.00 58 1009.8
20260504231556 24 208 0.0 8.0 0.00 0.00 0.00 59 1009.9
20260504230053 23 229 0.0 8.0 0.00 0.00 0.00 60 1010.0
20260504224550 23 205 3.2 11.3 0.00 0.00 0.00 58 1010.2
20260504223049 23 186 0.0 9.7 0.00 0.00 0.00 63 1010.4
20260504221548 23 171 0.0 12.9 0.00 0.00 0.00 64 1010.5
20260504220048 23 219 0.0 11.3 0.00 0.00 0.00 63 1010.8
20260504214554 22 171 0.0 11.3 0.00 0.00 0.00 64 1010.8
20260504213046 22 192 1.6 8.0 0.00 0.00 0.00 63 1011.0
20260504211546 21 236 0.0 11.3 0.00 0.00 0.00 64 1011.2
20260504210057 21 221 0.0 12.9 0.00 0.00 0.00 65 1011.5
20260504204558 21 186 0.0 6.4 0.00 0.00 0.00 66 1011.7
20260504203056 20 210 0.0 6.4 0.00 0.00 0.00 67 1011.9
20260504201543 20 225 0.0 4.8 0.00 0.00 0.00 66 1012.1
20260504200044 19 214 0.0 8.0 0.00 0.00 0.00 67 1012.2
20260504194543 18 256 0.0 9.7 0.00 0.00 0.00 71 1012.3
20260504193042 17 105 0.0 4.8 0.00 0.00 0.00 72 1012.5
20260504191541 17 221 0.0 6.4 0.00 0.00 0.00 73 1012.5
20260504190042 16 169 0.0 6.4 0.00 0.00 0.00 74 1012.6
20260504184541 16 189 3.2 8.0 0.00 0.00 0.00 75 1012.8
20260504183041 16 123 0.0 9.7 0.00 0.00 0.00 76 1012.8
20260504181539 16 208 3.2 11.3 0.00 0.00 0.00 75 1012.7
20260504180040 16 194 0.0 8.0 0.00 0.00 0.00 75 1012.8
20260504174539 16 246 1.6 9.7 0.00 0.00 0.00 74 1012.9
20260504173040 16 97 0.0 6.4 0.00 0.00 0.00 75 1012.8
20260504171538 15 202 4.8 11.3 0.00 0.00 0.00 77 1012.7